TimeEST,TemperatureF,Dew PointF,Humidity,Sea Level PressureIn,VisibilityMPH,Wind Direction,Wind SpeedMPH,Gust SpeedMPH,PrecipitationIn,Events,Conditions,WindDirDegrees,DateUTC
12:54 AM,37.9,21.0,51,30.23,10.0,South,11.5,-,N/A,,Scattered Clouds,190,2013-02-19 05:54:00
1:54 AM,37.0,21.9,54,30.21,10.0,South,13.8,-,N/A,,Scattered Clouds,190,2013-02-19 06:54:00
2:54 AM,36.0,23.0,59,30.20,10.0,South,10.4,-,N/A,,Partly Cloudy,190,2013-02-19 07:54:00
3:54 AM,33.1,24.1,70,30.17,10.0,South,8.1,-,N/A,,Partly Cloudy,180,2013-02-19 08:54:00
4:54 AM,35.1,25.0,67,30.13,10.0,South,8.1,-,N/A,,Mostly Cloudy,170,2013-02-19 09:54:00
5:54 AM,35.1,26.1,70,30.13,10.0,South,9.2,-,N/A,,Mostly Cloudy,170,2013-02-19 10:54:00
6:54 AM,37.0,26.1,65,30.12,10.0,South,11.5,-,N/A,,Overcast,190,2013-02-19 11:54:00
7:54 AM,39.9,28.0,63,30.09,10.0,South,10.4,-,N/A,,Overcast,190,2013-02-19 12:54:00
8:54 AM,42.1,30.0,62,30.09,10.0,SSW,13.8,-,N/A,,Overcast,200,2013-02-19 13:54:00
9:54 AM,42.1,30.0,62,30.06,10.0,South,9.2,-,N/A,,Overcast,190,2013-02-19 14:54:00
10:54 AM,43.0,32.0,65,30.04,10.0,SSW,11.5,-,N/A,,Overcast,200,2013-02-19 15:54:00
11:54 AM,43.0,36.0,76,30.00,10.0,SSW,6.9,-,0.01,Rain,Light Rain,200,2013-02-19 16:54:00
1:15 PM,48.2,42.8,82,29.89,10.0,South,11.5,-,0.00,Rain,Light Rain,180,2013-02-19 18:15:00
1:54 PM,50.0,44.1,80,29.87,10.0,SSW,15.0,25.3,0.01,,Overcast,200,2013-02-19 18:54:00
2:45 PM,50.0,46.4,87,29.82,2.0,SSW,16.1,20.7,0.00,Rain,Light Rain,200,2013-02-19 19:45:00
2:54 PM,50.0,46.0,86,29.83,2.0,SSW,16.1,-,0.01,Rain,Light Rain,200,2013-02-19 19:54:00
3:21 PM,48.2,46.4,93,29.81,1.8,SSW,11.5,-,0.03,Rain,Light Rain,200,2013-02-19 20:21:00
3:31 PM,48.2,46.4,93,29.81,2.0,SSW,12.7,-,0.05,Rain,Light Rain,200,2013-02-19 20:31:00
3:54 PM,48.9,46.9,93,29.82,6.0,SSW,10.4,-,0.06,Rain,Light Rain,210,2013-02-19 20:54:00
4:16 PM,50.0,46.4,87,29.80,10.0,SW,12.7,-,0.00,,Overcast,220,2013-02-19 21:16:00
4:43 PM,50.0,46.4,87,29.79,10.0,SW,16.1,-,0.00,,Overcast,220,2013-02-19 21:43:00
4:54 PM,50.0,46.9,89,29.81,10.0,SW,15.0,-,0.00,,Overcast,220,2013-02-19 21:54:00
5:54 PM,50.0,45.0,83,29.81,10.0,SW,13.8,-,N/A,,Mostly Cloudy,230,2013-02-19 22:54:00
7:35 PM,46.4,42.8,87,29.84,10.0,WSW,8.1,-,N/A,,Mostly Cloudy,240,2013-02-20 00:35:00
7:54 PM,46.9,41.0,80,29.86,10.0,WSW,9.2,-,N/A,,Mostly Cloudy,240,2013-02-20 00:54:00
8:54 PM,45.0,39.9,82,29.87,10.0,WSW,9.2,-,N/A,,Scattered Clouds,240,2013-02-20 01:54:00
9:54 PM,44.1,39.0,82,29.89,10.0,West,8.1,-,N/A,,Partly Cloudy,280,2013-02-20 02:54:00
10:54 PM,42.1,37.9,85,29.90,10.0,West,5.8,-,N/A,,Partly Cloudy,260,2013-02-20 03:54:00
11:54 PM,41.0,35.1,79,29.90,10.0,West,8.1,-,N/A,,Clear,260,2013-02-20 04:54:00